Weather Roundup
Issued by NWS Springfield, MO

Home | Current Version | Previous Version | Text Only | Print | Product List | Glossary On
Versions: 1 2 3 4 5 6 7 8 9 10 11 12 13 14 15 16 17 18 19 20 21 22 23 24 25 26 27 28 29 30 31 32 33 34 35 36 37 38 39 40 41 42 43 44 45 46 47 48 49 50
000
NZUS99 KSGF 242157
HRRSGF

HOURLY WEATHER
NATIONAL WEATHER SERVICE SPRINGFIELD MO
500 PM CDT TUE MAY 24 2016

......SGF CWA......

CITY           SKY/WX    TMP DP  RH WIND       PRES   REMARKS
SPRINGFIELD    CLOUDY    69  61  75 SE18      29.97R
JOPLIN         CLOUDY    80  71  74 S16       29.92F
WEST PLAINS    LGT RAIN  64  61  90 E12       30.04F
ROLLA          LGT RAIN  65  62  90 SE22      29.89F
BRANSON        CLOUDY    63  63 100 SE12G17   30.03

......SURROUNDING SGF CWA......

CITY           SKY/WX    TMP DP  RH WIND       PRES   REMARKS
CHANUTE        CLOUDY    80  71  74 S12       29.88F
PARSONS        CLOUDY    81  72  74 S7        29.90F
COFFEYVILLE    CLOUDY    80  71  74 S8        29.89F
EMPORIA        SUNNY     80  68  66 S15       29.87F
HARRISON AR    LGT RAIN  64  63  96 SE8       30.04F

......KANSAS AND MISSOURI......

CITY           SKY/WX    TMP DP  RH WIND       PRES   REMARKS
KANSAS CTY INT MOSUNNY   79  67  66 SW8       29.89R
SEDALIA        CLOUDY    76  63  64 SW5       29.91R
ST JOSEPH      SUNNY     80  62  54 CALM      29.88F
ST LOUIS       CLOUDY    78  64  61 S15G24    29.98F
WICHITA        PTSUNNY   81  71  71 SE17      29.84F
TOPEKA         SUNNY     80  66  62 S12       29.86F
OLATHE         SUNNY     76  65  68 S13       29.89R

......TENNESSEE......

CITY           SKY/WX    TMP DP  RH WIND       PRES   REMARKS
MEMPHIS        NOT AVBL
NASHVILLE      MOSUNNY   85  49  28 W7        30.07F

......ARKANSAS.......

CITY           SKY/WX    TMP DP  RH WIND       PRES   REMARKS
FAYETTEVILLE   CLOUDY    79  70  74 SE7       29.99F
FT SMITH       PTSUNNY   84  70  62 S6        29.95S
LITTLE ROCK    PTSUNNY   86  67  52 S10       29.98S

......OKLAHOMA.......

CITY           SKY/WX    TMP DP  RH WIND       PRES   REMARKS
TULSA          CLOUDY    79  71  76 E8        29.88F
PONCA CITY     CLOUDY    82  69  64 SE16      29.84F
MCALESTER      CLOUDY    82  72  71 VRB5      29.93R
OKLAHOMA CITY  PTSUNNY   85  71  63 S18G25    29.86F HX  90

......IOWA............

CITY           SKY/WX    TMP DP  RH WIND       PRES   REMARKS
DES MOINES     NOT AVBL
QUAD CITIES    MOSUNNY   87  58  37 S7        29.89F

......ILLINOIS........

CITY           SKY/WX    TMP DP  RH WIND       PRES   REMARKS
QUINCY         NOT AVBL
CHICAGO        PTSUNNY   86  48  26 S20G25    29.92F




USA.gov is the U.S. government's official web portal to all federal, state and local government web resources and services.